Location: Besset
(43.0780°N, 1.8362°E)
Time: 13:16:13
(UTC+00:00)

Daily predictions for brighter satellites

Satellite Brightness Start Highest point End
(mag) Time Altitude Azimuth Time Altitude Azimuth Time Altitude Azimuth
Cosmos 2369 Rocket 4.5 16:54:12 10° W 16:58:01 18° NW 17:01:52 10° N
USA 215 4.3 16:54:21 10° ENE 16:59:42 28° N 17:05:03 10° NW
Cosmos 2233 Rocket 4.1 16:55:55 10° N 17:02:12 62° E 17:08:24 10° SSE
USA 229 DEB 4.0 16:57:16 10° S 17:03:26 46° ESE 17:09:52 10° NE
USA 229 4.0 16:57:24 10° S 17:03:33 46° ESE 17:09:57 10° NE
Cosmos 1743 Rocket 3.5 17:02:57 10° N 17:07:19 79° E 17:11:41 10° S
Cosmos 1805 Rocket 4.3 17:03:41 10° NNE 17:07:34 31° ENE 17:11:27 10° SE
Envisat 3.6 17:03:43 10° SE 17:08:14 33° ENE 17:12:46 10° N
NOSS 3-1 (A) 4.3 17:04:38 10° SSE 17:09:04 26° ESE 17:13:55 10° ENE
NOSS 3-1 (C) 3.7 17:04:38 10° S 17:09:42 42° ESE 17:15:26 10° NE
AQUARIUS 4.2 17:05:28 10° SSE 17:09:54 62° ENE 17:14:21 10° N
Cosmos 1455 4.1 17:07:36 10° SW 17:10:59 31° WNW 17:14:23 10° NNW
YAOGAN 6 3.9 17:12:12 10° ESE 17:14:38 18° ENE 17:17:05 10° NNE
Okean O Rocket 3.7 17:12:15 10° SSW 17:16:12 32° W 17:20:10 10° NNW
Cosmos 2344 4.1 17:09:39 10° SW 17:17:04 59° NW 17:25:12 10° NNE
Cosmos 2227 Rocket 2.6 17:11:53 10° NNW 17:17:13 40° ENE 17:22:31 10° SE
Cosmos 2297 Rocket 2.5 17:12:08 10° NNW 17:17:33 43° ENE 17:22:55 10° SE
CORIOLIS 4.1 17:12:26 10° SSE 17:17:47 70° ENE 17:23:12 10° N
IRS-1C Rocket 4.3 17:15:59 10° S 17:21:15 78° WSW 17:26:34 10° NNW
SeaSat 1 2.5 17:18:37 10° SE 17:23:24 55° ENE 17:28:15 10° NNW
Cosmos 1464 Rocket 4.5 17:18:08 10° N 17:23:46 36° ENE 17:29:19 10° SE
H-2A R/B 2.8 17:25:46 10° S 17:29:38 84° WSW 17:33:29 10° NNW
Cosmos 2369 4.5 17:27:06 10° SSE 17:31:58 30° ESE 17:36:23 12° NE
Cosmos 1500 Rocket 4.1 17:27:56 10° NNW 17:32:16 61° W 17:36:32 10° S
Meteor 2-20 4.4 17:26:30 10° S 17:32:34 70° E 17:38:41 10° NNE
Meteor 2-2 Rocket 4.3 17:31:31 10° S 17:37:25 85° E 17:43:13 10° N
Geosat 4.0 17:32:35 10° NNE 17:37:39 89° WNW 17:42:40 10° SSW
Cosmos 1633 Rocket 3.9 17:33:56 10° NNE 17:37:46 28° ENE 17:41:35 10° SE
Genesis I 4.1 17:34:03 10° SW 17:37:57 49° NW 17:41:52 10° NNE
Cosmos 2263 Rocket 4.1 17:40:53 10° NE 17:41:12 10° NE 17:41:12 10° NE
SMAP 3.8 17:37:16 10° S 17:41:50 57° W 17:46:26 10° NNW
Cosmos 1680 Rocket 4.3 17:38:34 10° SSE 17:42:57 28° E 17:45:41 18° NE
Cosmos 2082 4.0 17:39:01 10° NNW 17:44:20 41° ENE 17:49:37 10° SE
COSMO-SKYMED 1 2.7 17:41:15 10° NNE 17:45:31 51° E 17:49:44 10° S
ERBS 2.7 17:43:00 10° SSW 17:46:09 42° SE 17:47:20 29° E
Cosmos 1862 3.8 17:44:00 10° N 17:47:41 35° ENE 17:51:21 10° SE
Cosmos 1666 Rocket 3.8 17:44:13 10° N 17:48:26 44° ENE 17:52:34 10° SSE
Cosmos 2084 3.7 17:44:31 10° NW 17:48:48 71° WSW 17:52:59 10° SSE
Cosmos 1607 3.9 17:43:14 10° NNW 17:49:29 80° NE 17:55:46 10° SE
Ariane Rocket 4.1 17:51:23 22° ENE 17:51:23 22° ENE 17:55:09 10° NNE
Cosmos 2278 4.4 17:47:05 10° SSE 17:52:04 33° ESE 17:54:50 21° ENE
Sich 1 2.9 17:47:50 10° N 17:52:10 67° E 17:56:31 10° SSE
Cosmos 1328 Rocket 4.3 17:48:51 10° SSE 17:52:44 31° E 17:54:25 23° NE
Cosmos 1697 Rocket 3.1 17:48:05 10° S 17:53:22 42° ESE 17:57:08 18° NE
Cosmos 1151 Rocket 3.7 17:54:48 10° SSE 17:58:40 32° E 17:59:23 30° ENE
ATLAS 5 CENTAUR R/B 2.4 17:53:53 10° NW 17:59:45 84° NE 18:06:28 10° SE
BREEZE-M DEB (TANK) 2.7 17:59:08 10° SW 18:05:06 54° SSE 18:06:06 38° ESE
Cosmos 923 Rocket 4.0 18:01:54 10° S 18:07:02 61° ESE 18:10:51 18° NNE
PSLV R/B 3.2 18:06:01 10° W 18:08:17 50° SSW 18:08:17 50° SSW
Cosmos 1356 Rocket 4.0 18:08:16 10° SSW 18:12:20 58° WNW 18:16:31 10° N
YAOGAN 1 2.4 18:08:17 10° SSE 18:12:33 66° ENE 18:16:52 10° N
Cosmos 2056 Rocket 4.5 18:09:54 10° N 18:13:20 26° NE 18:13:20 26° NE
Cosmos 2346 Rocket 4.5 18:11:45 10° SSE 18:17:48 56° E 18:23:50 10° NNE
Cosmos 1470 Rocket 4.4 18:14:58 10° N 18:17:57 34° NE 18:17:57 34° NE
Lacrosse 4 Rocket 1.2 18:15:56 10° SSW 18:20:01 82° ESE 18:21:00 50° NE
Cosmos 2034 Rocket 3.9 18:13:43 10° N 18:20:05 70° E 18:26:25 10° SSE
Okean-O 4.4 18:18:38 10° SSW 18:22:40 34° W 18:26:43 10° NNW
NOAA 11 4.1 18:20:01 10° SSE 18:25:19 59° ENE 18:30:40 10° N
USA 116 4.1 18:21:50 12° NNE 18:26:01 88° E 18:31:04 10° SSW
Meteor 2-11 Rocket 4.3 18:21:43 10° N 18:27:51 77° E 18:33:59 10° SSE
Cosmos 1656 4.1 18:22:43 10° SW 18:28:12 59° WNW 18:33:00 13° NNE
Cosmos 1633 3.4 18:26:52 10° NNW 18:30:25 50° W 18:33:56 10° S
CSL-04 Debris 4.2 18:25:04 10° SSE 18:30:34 85° WSW 18:36:06 10° NNW
SKYMED 2 4.5 18:29:26 10° N 18:33:37 48° WNW 18:37:47 10° SW
CZ-4 R/B 2.2 18:30:17 10° S 18:34:22 53° W 18:38:25 10° NNW
Tsikada Rocket 3.9 18:33:30 10° S 18:39:47 71° E 18:46:11 10° NNE
Cosmos 724 4.2 18:34:17 10° NNW 18:40:04 60° NE 18:40:39 57° E
DMSP B5D1-3 4.4 18:37:40 31° NNE 18:40:10 77° ESE 18:45:19 10° S
USA 215 3.5 18:40:26 44° ENE 18:41:49 51° NNE 18:48:05 10° NW
Cosmos 1816 Rocket 4.4 18:40:50 10° S 18:47:09 85° E 18:53:34 10° N
CSL-04 Rocket 4.2 18:44:21 10° S 18:49:39 58° WSW 18:54:55 10° NNW
NOSS 2-3 (E) 3.7 18:47:25 10° SW 18:51:44 76° NW 18:51:48 76° NW
Cosmos 1980 Rocket 2.0 18:51:14 10° SSW 18:56:39 75° SE 18:56:39 75° SE
NOSS 3-1 (A) 3.9 18:53:56 10° SW 18:59:22 54° NW 19:01:51 34° NNE
Cosmos 2227 Rocket 3.9 18:56:12 10° NW 19:01:07 31° WSW 19:06:00 10° SSW
NOSS 2-3 (D) 4.0 18:56:51 10° SW 19:00:45 63° W 19:00:45 63° W
Cosmos 2297 Rocket 4.1 18:56:36 10° NW 19:01:22 29° WSW 19:06:06 10° SSW
Cosmos 1371 Rocket 4.4 18:59:21 10° NNW 19:03:21 54° NNW 19:03:21 54° NNW
Cosmos 2263 Rocket 4.0 19:21:10 10° NNW 19:22:54 20° N 19:22:54 20° N
Ariane Rocket 4.3 19:31:36 36° NW 19:31:36 36° NW 19:34:54 10° NNW
Cosmos 1697 Rocket 4.3 19:32:28 10° WSW 19:37:26 31° NW 19:38:55 27° NNW
CENTAUR R/B 4.5 19:39:10 10° NNW 19:43:19 23° N 19:43:19 23° N
